Location: Franzen
(48.6167°N, 15.3833°E)
Time: 17:59:26
(UTC+00:00)

Tianhe-1 - Visible Passes

Search period start: 23 June 2021 00:00
Search period end: 03 July 2021 00:00
Orbit: 375 x 385 km, 41.5° (Epoch: 22 June)

Date Brightness Start Highest point End Pass type
(mag) Time Alt. Az. Time Alt. Az. Time Alt. Az.
23 Jun 3.2 01:26:37 12° S 01:27:21 13° SSE 01:28:58 10° SE visible
24 Jun 2.7 02:00:13 11° SW 02:02:30 20° S 02:04:54 10° ESE visible
25 Jun 2.9 01:01:36 17° SSE 01:01:36 17° SSE 01:03:33 10° ESE visible
26 Jun 2.5 01:35:01 17° SSW 01:36:22 22° S 01:38:52 10° ESE visible
27 Jun 3.1 00:36:17 16° SE 00:36:17 16° SE 00:37:25 10° ESE visible
27 Jun 2.5 02:08:47 10° WSW 02:11:12 20° S 02:13:37 10° SE visible
28 Jun 2.4 01:09:40 22° S 01:09:45 22° S 01:12:15 10° SE visible
29 Jun 2.7 01:43:09 15° SW 01:44:19 18° SSW 01:46:31 10° SSE visible
30 Jun 3.5 00:44:49 11° SE 00:44:49 11° SE 00:45:04 10° SE visible
30 Jun 3.2 02:17:57 10° SW 02:18:37 11° SSW 02:19:18 10° S visible
